owner,sensor,date,latitude,longitude,sea_surface_height_above_sea_level,qcFlag 
COMPS,ioos:station:USF.COMPS:BGC:1,2009-10-01T00:00:00Z,26.4040,-81.8810,-0.095,1111122 
COMPS,ioos:station:USF.COMPS:BGC:1,2009-10-01T00:06:00Z,26.4040,-81.8810,-0.077,1111122 
COMPS,ioos:station:USF.COMPS:BGC:1,2009-10-01T00:12:00Z,26.4040,-81.8810,-0.06,1111122 
COMPS,ioos:station:USF.COMPS:BGC:1,2009-10-01T00:18:00Z,26.4040,-81.8810,-0.055,1111122 
COMPS,ioos:station:USF.COMPS:BGC:1,2009-10-01T00:24:00Z,26.4040,-81.8810,-0.051,1111122 
COMPS,ioos:station:USF.COMPS:BGC:1,2009-10-01T00:30:00Z,26.4040,-81.8810,-0.031,1111122 
COMPS,ioos:station:USF.COMPS:BGC:1,2009-10-01T00:36:00Z,26.4040,-81.8810,-0.025,1111122 
COMPS,ioos:station:USF.COMPS:BGC:1,2009-10-01T00:42:00Z,26.4040,-81.8810,-0.017,1111122 
COMPS,ioos:station:USF.COMPS:BGC:1,2009-10-01T00:48:00Z,26.4040,-81.8810,0.0,1114422 
COMPS,ioos:station:USF.COMPS:BGC:1,2009-10-01T00:54:00Z,26.4040,-81.8810,0.013,1111122 
COMPS,ioos:station:USF.COMPS:BGC:1,2009-10-01T01:00:00Z,26.4040,-81.8810,0.026,1111122 
COMPS,ioos:station:USF.COMPS:BGC:1,2009-10-01T01:06:00Z,26.4040,-81.8810,0.036,1111122 
COMPS,ioos:station:USF.COMPS:BGC:1,2009-10-01T01:12:00Z,26.4040,-81.8810,0.045,1111122 
COMPS,ioos:station:USF.COMPS:BGC:1,2009-10-01T01:18:00Z,26.4040,-81.8810,0.058,1111122 
COMPS,ioos:station:USF.COMPS:BGC:1,2009-10-01T01:24:00Z,26.4040,-81.8810,0.071,1111122 
COMPS,ioos:station:USF.COMPS:BGC:1,2009-10-01T01:30:00Z,26.4040,-81.8810,0.085,1111122 
COMPS,ioos:station:USF.COMPS:BGC:1,2009-10-01T01:36:00Z,26.4040,-81.8810,0.098,1111122 
COMPS,ioos:station:USF.COMPS:BGC:1,2009-10-01T01:42:00Z,26.4040,-81.8810,0.101,1111122 
COMPS,ioos:station:USF.COMPS:BGC:1,2009-10-01T01:48:00Z,26.4040,-81.8810,0.11,1111122 
COMPS,ioos:station:USF.COMPS:BGC:1,2009-10-01T01:54:00Z,26.4040,-81.8810,0.12,1111122 
COMPS,ioos:station:USF.COMPS:BGC:1,2009-10-01T02:00:00Z,26.4040,-81.8810,0.136,1111122 
COMPS,ioos:station:USF.COMPS:BGC:1,2009-10-01T02:06:00Z,26.4040,-81.8810,0.152,1111122 
COMPS,ioos:station:USF.COMPS:BGC:1,2009-10-01T02:12:00Z,26.4040,-81.8810,0.161,1111122 
COMPS,ioos:station:USF.COMPS:BGC:1,2009-10-01T02:18:00Z,26.4040,-81.8810,0.167,1111122 
COMPS,ioos:station:USF.COMPS:BGC:1,2009-10-01T02:24:00Z,26.4040,-81.8810,0.176,1111122 
COMPS,ioos:station:USF.COMPS:BGC:1,2009-10-01T02:30:00Z,26.4040,-81.8810,0.187,1111122 
COMPS,ioos:station:USF.COMPS:BGC:1,2009-10-01T02:36:00Z,26.4040,-81.8810,0.196,1111122 
COMPS,ioos:station:USF.COMPS:BGC:1,2009-10-01T02:42:00Z,26.4040,-81.8810,0.207,1111122 
COMPS,ioos:station:USF.COMPS:BGC:1,2009-10-01T02:48:00Z,26.4040,-81.8810,0.221,1111122 
COMPS,ioos:station:USF.COMPS:BGC:1,2009-10-01T02:54:00Z,26.4040,-81.8810,0.232,1111122 
COMPS,ioos:station:USF.COMPS:BGC:1,2009-10-01T03:00:00Z,26.4040,-81.8810,0.24,1111122 
COMPS,ioos:station:USF.COMPS:BGC:1,2009-10-01T03:06:00Z,26.4040,-81.8810,0.254,1111122 
COMPS,ioos:station:USF.COMPS:BGC:1,2009-10-01T03:12:00Z,26.4040,-81.8810,0.265,1111122 
COMPS,ioos:station:USF.COMPS:BGC:1,2009-10-01T03:18:00Z,26.4040,-81.8810,0.259,1111122 
COMPS,ioos:station:USF.COMPS:BGC:1,2009-10-01T03:24:00Z,26.4040,-81.8810,0.283,1111122 
COMPS,ioos:station:USF.COMPS:BGC:1,2009-10-01T03:30:00Z,26.4040,-81.8810,0.293,1111122 
COMPS,ioos:station:USF.COMPS:BGC:1,2009-10-01T03:36:00Z,26.4040,-81.8810,0.286,1111122 
COMPS,ioos:station:USF.COMPS:BGC:1,2009-10-01T03:42:00Z,26.4040,-81.8810,0.287,1111122 
COMPS,ioos:station:USF.COMPS:BGC:1,2009-10-01T03:48:00Z,26.4040,-81.8810,0.296,1111122 
COMPS,ioos:station:USF.COMPS:BGC:1,2009-10-01T03:54:00Z,26.4040,-81.8810,0.309,1111122 
COMPS,ioos:station:USF.COMPS:BGC:1,2009-10-01T04:00:00Z,26.4040,-81.8810,0.313,1111122 
COMPS,ioos:station:USF.COMPS:BGC:1,2009-10-01T04:06:00Z,26.4040,-81.8810,0.327,1111122 
COMPS,ioos:station:USF.COMPS:BGC:1,2009-10-01T04:12:00Z,26.4040,-81.8810,0.324,1111122 
COMPS,ioos:station:USF.COMPS:BGC:1,2009-10-01T04:18:00Z,26.4040,-81.8810,0.326,1111122 
COMPS,ioos:station:USF.COMPS:BGC:1,2009-10-01T04:24:00Z,26.4040,-81.8810,0.338,1111122 
COMPS,ioos:station:USF.COMPS:BGC:1,2009-10-01T04:30:00Z,26.4040,-81.8810,0.327,1111122 
COMPS,ioos:station:USF.COMPS:BGC:1,2009-10-01T04:36:00Z,26.4040,-81.8810,0.318,1111122 
COMPS,ioos:station:USF.COMPS:BGC:1,2009-10-01T04:42:00Z,26.4040,-81.8810,0.327,1111122 
COMPS,ioos:station:USF.COMPS:BGC:1,2009-10-01T04:48:00Z,26.4040,-81.8810,0.326,1111122 
COMPS,ioos:station:USF.COMPS:BGC:1,2009-10-01T04:54:00Z,26.4040,-81.8810,0.314,1111122 
COMPS,ioos:station:USF.COMPS:BGC:1,2009-10-01T05:00:00Z,26.4040,-81.8810,0.299,1111122 
COMPS,ioos:station:USF.COMPS:BGC:1,2009-10-01T05:06:00Z,26.4040,-81.8810,0.306,1111122 
COMPS,ioos:station:USF.COMPS:BGC:1,2009-10-01T05:12:00Z,26.4040,-81.8810,0.296,1111122 
COMPS,ioos:station:USF.COMPS:BGC:1,2009-10-01T05:18:00Z,26.4040,-81.8810,0.277,1111122 
COMPS,ioos:station:USF.COMPS:BGC:1,2009-10-01T05:24:00Z,26.4040,-81.8810,0.268,1111122 
COMPS,ioos:station:USF.COMPS:BGC:1,2009-10-01T05:30:00Z,26.4040,-81.8810,0.261,1111122 
COMPS,ioos:station:USF.COMPS:BGC:1,2009-10-01T05:36:00Z,26.4040,-81.8810,0.239,1111122 
COMPS,ioos:station:USF.COMPS:BGC:1,2009-10-01T05:42:00Z,26.4040,-81.8810,0.237,1111122 
COMPS,ioos:station:USF.COMPS:BGC:1,2009-10-01T05:48:00Z,26.4040,-81.8810,0.233,1111122 
COMPS,ioos:station:USF.COMPS:BGC:1,2009-10-01T05:54:00Z,26.4040,-81.8810,0.217,1111122 
COMPS,ioos:station:USF.COMPS:BGC:1,2009-10-01T06:00:00Z,26.4040,-81.8810,0.207,1111122 
COMPS,ioos:station:USF.COMPS:BGC:1,2009-10-01T06:06:00Z,26.4040,-81.8810,0.2,1111122 
COMPS,ioos:station:USF.COMPS:BGC:1,2009-10-01T06:12:00Z,26.4040,-81.8810,0.182,1111122 
COMPS,ioos:station:USF.COMPS:BGC:1,2009-10-01T06:18:00Z,26.4040,-81.8810,0.174,1111122 
COMPS,ioos:station:USF.COMPS:BGC:1,2009-10-01T06:24:00Z,26.4040,-81.8810,0.17,1111122 
COMPS,ioos:station:USF.COMPS:BGC:1,2009-10-01T06:30:00Z,26.4040,-81.8810,0.146,1111122 
COMPS,ioos:station:USF.COMPS:BGC:1,2009-10-01T06:36:00Z,26.4040,-81.8810,0.131,1111122 
COMPS,ioos:station:USF.COMPS:BGC:1,2009-10-01T06:42:00Z,26.4040,-81.8810,0.123,1111122 
COMPS,ioos:station:USF.COMPS:BGC:1,2009-10-01T06:48:00Z,26.4040,-81.8810,0.101,1111122 
COMPS,ioos:station:USF.COMPS:BGC:1,2009-10-01T06:54:00Z,26.4040,-81.8810,0.089,1111122 
COMPS,ioos:station:USF.COMPS:BGC:1,2009-10-01T07:00:00Z,26.4040,-81.8810,0.073,1111122 
COMPS,ioos:station:USF.COMPS:BGC:1,2009-10-01T07:06:00Z,26.4040,-81.8810,0.073,1111122 
COMPS,ioos:station:USF.COMPS:BGC:1,2009-10-01T07:12:00Z,26.4040,-81.8810,0.06,1111122 
COMPS,ioos:station:USF.COMPS:BGC:1,2009-10-01T07:18:00Z,26.4040,-81.8810,0.044,1111122 
COMPS,ioos:station:USF.COMPS:BGC:1,2009-10-01T07:24:00Z,26.4040,-81.8810,0.02,1111122 
COMPS,ioos:station:USF.COMPS:BGC:1,2009-10-01T07:30:00Z,26.4040,-81.8810,0.018,1111122 
COMPS,ioos:station:USF.COMPS:BGC:1,2009-10-01T07:36:00Z,26.4040,-81.8810,-0.001,1111122 
COMPS,ioos:station:USF.COMPS:BGC:1,2009-10-01T07:42:00Z,26.4040,-81.8810,-0.014,1111122 
COMPS,ioos:station:USF.COMPS:BGC:1,2009-10-01T07:48:00Z,26.4040,-81.8810,-0.012,1111122 
COMPS,ioos:station:USF.COMPS:BGC:1,2009-10-01T07:54:00Z,26.4040,-81.8810,-0.031,1111122 
COMPS,ioos:station:USF.COMPS:BGC:1,2009-10-01T08:00:00Z,26.4040,-81.8810,-0.04,1111122 
COMPS,ioos:station:USF.COMPS:BGC:1,2009-10-01T08:06:00Z,26.4040,-81.8810,-0.06,1111122 
COMPS,ioos:station:USF.COMPS:BGC:1,2009-10-01T08:12:00Z,26.4040,-81.8810,-0.059,1111122 
COMPS,ioos:station:USF.COMPS:BGC:1,2009-10-01T08:18:00Z,26.4040,-81.8810,-0.059,1111122 
COMPS,ioos:station:USF.COMPS:BGC:1,2009-10-01T08:24:00Z,26.4040,-81.8810,-0.076,1111122 
COMPS,ioos:station:USF.COMPS:BGC:1,2009-10-01T08:30:00Z,26.4040,-81.8810,-0.091,1111122 
COMPS,ioos:station:USF.COMPS:BGC:1,2009-10-01T08:36:00Z,26.4040,-81.8810,-0.094,1111122 
COMPS,ioos:station:USF.COMPS:BGC:1,2009-10-01T08:42:00Z,26.4040,-81.8810,-0.107,1111122 
COMPS,ioos:station:USF.COMPS:BGC:1,2009-10-01T08:48:00Z,26.4040,-81.8810,-0.115,1111122 
COMPS,ioos:station:USF.COMPS:BGC:1,2009-10-01T08:54:00Z,26.4040,-81.8810,-0.113,1111122 
COMPS,ioos:station:USF.COMPS:BGC:1,2009-10-01T09:00:00Z,26.4040,-81.8810,-0.11,1111122 
COMPS,ioos:station:USF.COMPS:BGC:1,2009-10-01T09:06:00Z,26.4040,-81.8810,-0.113,1111122 
COMPS,ioos:station:USF.COMPS:BGC:1,2009-10-01T09:12:00Z,26.4040,-81.8810,-0.116,1111122 
COMPS,ioos:station:USF.COMPS:BGC:1,2009-10-01T09:18:00Z,26.4040,-81.8810,-0.114,1111122 
COMPS,ioos:station:USF.COMPS:BGC:1,2009-10-01T09:24:00Z,26.4040,-81.8810,-0.126,1111122 
COMPS,ioos:station:USF.COMPS:BGC:1,2009-10-01T09:30:00Z,26.4040,-81.8810,-0.123,1111122 
COMPS,ioos:station:USF.COMPS:BGC:1,2009-10-01T09:36:00Z,26.4040,-81.8810,-0.118,1111122 
COMPS,ioos:station:USF.COMPS:BGC:1,2009-10-01T09:42:00Z,26.4040,-81.8810,-0.114,1111122 
COMPS,ioos:station:USF.COMPS:BGC:1,2009-10-01T09:48:00Z,26.4040,-81.8810,-0.124,1111122 
COMPS,ioos:station:USF.COMPS:BGC:1,2009-10-01T09:54:00Z,26.4040,-81.8810,-0.118,1111122 
COMPS,ioos:station:USF.COMPS:BGC:1,2009-10-01T10:00:00Z,26.4040,-81.8810,-0.113,1111122 
COMPS,ioos:station:USF.COMPS:BGC:1,2009-10-01T10:06:00Z,26.4040,-81.8810,-0.108,1111122 
COMPS,ioos:station:USF.COMPS:BGC:1,2009-10-01T10:12:00Z,26.4040,-81.8810,-0.101,1111122 
COMPS,ioos:station:USF.COMPS:BGC:1,2009-10-01T10:18:00Z,26.4040,-81.8810,-0.097,1111122 
COMPS,ioos:station:USF.COMPS:BGC:1,2009-10-01T10:24:00Z,26.4040,-81.8810,-0.088,1111122 
COMPS,ioos:station:USF.COMPS:BGC:1,2009-10-01T10:30:00Z,26.4040,-81.8810,-0.092,1111122 
COMPS,ioos:station:USF.COMPS:BGC:1,2009-10-01T10:36:00Z,26.4040,-81.8810,-0.091,1111122 
COMPS,ioos:station:USF.COMPS:BGC:1,2009-10-01T10:42:00Z,26.4040,-81.8810,-0.094,1111122 
COMPS,ioos:station:USF.COMPS:BGC:1,2009-10-01T10:48:00Z,26.4040,-81.8810,-0.086,1111122 
COMPS,ioos:station:USF.COMPS:BGC:1,2009-10-01T10:54:00Z,26.4040,-81.8810,-0.083,1111122 
COMPS,ioos:station:USF.COMPS:BGC:1,2009-10-01T11:00:00Z,26.4040,-81.8810,-0.079,1111122 
COMPS,ioos:station:USF.COMPS:BGC:1,2009-10-01T11:06:00Z,26.4040,-81.8810,-0.069,1111122 
COMPS,ioos:station:USF.COMPS:BGC:1,2009-10-01T11:12:00Z,26.4040,-81.8810,-0.06,1111122 
COMPS,ioos:station:USF.COMPS:BGC:1,2009-10-01T11:18:00Z,26.4040,-81.8810,-0.051,1111122 
COMPS,ioos:station:USF.COMPS:BGC:1,2009-10-01T11:24:00Z,26.4040,-81.8810,-0.047,1111122 
COMPS,ioos:station:USF.COMPS:BGC:1,2009-10-01T11:30:00Z,26.4040,-81.8810,-0.035,1111122 
COMPS,ioos:station:USF.COMPS:BGC:1,2009-10-01T11:36:00Z,26.4040,-81.8810,-0.033,1111122 
COMPS,ioos:station:USF.COMPS:BGC:1,2009-10-01T11:42:00Z,26.4040,-81.8810,-0.024,1111122 
COMPS,ioos:station:USF.COMPS:BGC:1,2009-10-01T11:48:00Z,26.4040,-81.8810,-0.006,1111122 
COMPS,ioos:station:USF.COMPS:BGC:1,2009-10-01T11:54:00Z,26.4040,-81.8810,0.004,1111122 
COMPS,ioos:station:USF.COMPS:BGC:1,2009-10-01T12:00:00Z,26.4040,-81.8810,0.013,1111122 
COMPS,ioos:station:USF.COMPS:BGC:1,2009-10-01T12:06:00Z,26.4040,-81.8810,0.034,1111122 
COMPS,ioos:station:USF.COMPS:BGC:1,2009-10-01T12:12:00Z,26.4040,-81.8810,0.039,1111122 
COMPS,ioos:station:USF.COMPS:BGC:1,2009-10-01T12:18:00Z,26.4040,-81.8810,0.04,1111122 
COMPS,ioos:station:USF.COMPS:BGC:1,2009-10-01T12:24:00Z,26.4040,-81.8810,0.06,1111122 
COMPS,ioos:station:USF.COMPS:BGC:1,2009-10-01T12:30:00Z,26.4040,-81.8810,0.068,1111122 
COMPS,ioos:station:USF.COMPS:BGC:1,2009-10-01T12:36:00Z,26.4040,-81.8810,0.08,1111122 
COMPS,ioos:station:USF.COMPS:BGC:1,2009-10-01T12:42:00Z,26.4040,-81.8810,0.089,1111122 
COMPS,ioos:station:USF.COMPS:BGC:1,2009-10-01T12:48:00Z,26.4040,-81.8810,0.105,1111122 
COMPS,ioos:station:USF.COMPS:BGC:1,2009-10-01T12:54:00Z,26.4040,-81.8810,0.113,1111122 
COMPS,ioos:station:USF.COMPS:BGC:1,2009-10-01T13:00:00Z,26.4040,-81.8810,0.12,1111122 
COMPS,ioos:station:USF.COMPS:BGC:1,2009-10-01T13:06:00Z,26.4040,-81.8810,0.139,1111122 
COMPS,ioos:station:USF.COMPS:BGC:1,2009-10-01T13:12:00Z,26.4040,-81.8810,0.149,1111122 
COMPS,ioos:station:USF.COMPS:BGC:1,2009-10-01T13:18:00Z,26.4040,-81.8810,0.156,1111122 
COMPS,ioos:station:USF.COMPS:BGC:1,2009-10-01T13:24:00Z,26.4040,-81.8810,0.166,1111122 
COMPS,ioos:station:USF.COMPS:BGC:1,2009-10-01T13:30:00Z,26.4040,-81.8810,0.171,1111122 
COMPS,ioos:station:USF.COMPS:BGC:1,2009-10-01T13:36:00Z,26.4040,-81.8810,0.18,1111122 
COMPS,ioos:station:USF.COMPS:BGC:1,2009-10-01T13:42:00Z,26.4040,-81.8810,0.2,1111122 
COMPS,ioos:station:USF.COMPS:BGC:1,2009-10-01T13:48:00Z,26.4040,-81.8810,0.208,1111122 
COMPS,ioos:station:USF.COMPS:BGC:1,2009-10-01T13:54:00Z,26.4040,-81.8810,0.212,1111122 
COMPS,ioos:station:USF.COMPS:BGC:1,2009-10-01T14:00:00Z,26.4040,-81.8810,0.222,1111122 
COMPS,ioos:station:USF.COMPS:BGC:1,2009-10-01T14:06:00Z,26.4040,-81.8810,0.232,1111122 
COMPS,ioos:station:USF.COMPS:BGC:1,2009-10-01T14:12:00Z,26.4040,-81.8810,0.244,1111122 
COMPS,ioos:station:USF.COMPS:BGC:1,2009-10-01T14:18:00Z,26.4040,-81.8810,0.257,1111122 
COMPS,ioos:station:USF.COMPS:BGC:1,2009-10-01T14:24:00Z,26.4040,-81.8810,0.264,1111122 
COMPS,ioos:station:USF.COMPS:BGC:1,2009-10-01T14:30:00Z,26.4040,-81.8810,0.269,1111122 
COMPS,ioos:station:USF.COMPS:BGC:1,2009-10-01T14:36:00Z,26.4040,-81.8810,0.278,1111122 
COMPS,ioos:station:USF.COMPS:BGC:1,2009-10-01T14:42:00Z,26.4040,-81.8810,0.286,1111122 
COMPS,ioos:station:USF.COMPS:BGC:1,2009-10-01T14:48:00Z,26.4040,-81.8810,0.295,1111122 
COMPS,ioos:station:USF.COMPS:BGC:1,2009-10-01T14:54:00Z,26.4040,-81.8810,0.306,1111122 
COMPS,ioos:station:USF.COMPS:BGC:1,2009-10-01T15:00:00Z,26.4040,-81.8810,0.304,1111122 
COMPS,ioos:station:USF.COMPS:BGC:1,2009-10-01T15:06:00Z,26.4040,-81.8810,0.312,1111122 
COMPS,ioos:station:USF.COMPS:BGC:1,2009-10-01T15:12:00Z,26.4040,-81.8810,0.302,1111122 
COMPS,ioos:station:USF.COMPS:BGC:1,2009-10-01T15:18:00Z,26.4040,-81.8810,0.319,1111122 
COMPS,ioos:station:USF.COMPS:BGC:1,2009-10-01T15:24:00Z,26.4040,-81.8810,0.334,1111122 
COMPS,ioos:station:USF.COMPS:BGC:1,2009-10-01T15:30:00Z,26.4040,-81.8810,0.334,1111122 
COMPS,ioos:station:USF.COMPS:BGC:1,2009-10-01T15:36:00Z,26.4040,-81.8810,0.34,1111122 
COMPS,ioos:station:USF.COMPS:BGC:1,2009-10-01T15:42:00Z,26.4040,-81.8810,0.34,1111122 
COMPS,ioos:station:USF.COMPS:BGC:1,2009-10-01T15:48:00Z,26.4040,-81.8810,0.34,1111122 
COMPS,ioos:station:USF.COMPS:BGC:1,2009-10-01T15:54:00Z,26.4040,-81.8810,0.343,1111122 
COMPS,ioos:station:USF.COMPS:BGC:1,2009-10-01T16:00:00Z,26.4040,-81.8810,0.351,1111122 
COMPS,ioos:station:USF.COMPS:BGC:1,2009-10-01T16:06:00Z,26.4040,-81.8810,0.346,1111122 
COMPS,ioos:station:USF.COMPS:BGC:1,2009-10-01T16:12:00Z,26.4040,-81.8810,0.337,1111122 
COMPS,ioos:station:USF.COMPS:BGC:1,2009-10-01T16:18:00Z,26.4040,-81.8810,0.344,1111122 
COMPS,ioos:station:USF.COMPS:BGC:1,2009-10-01T16:24:00Z,26.4040,-81.8810,0.334,1111122 
COMPS,ioos:station:USF.COMPS:BGC:1,2009-10-01T16:30:00Z,26.4040,-81.8810,0.344,1111122 
COMPS,ioos:station:USF.COMPS:BGC:1,2009-10-01T16:36:00Z,26.4040,-81.8810,0.325,1111122 
COMPS,ioos:station:USF.COMPS:BGC:1,2009-10-01T16:42:00Z,26.4040,-81.8810,0.335,1111122 
COMPS,ioos:station:USF.COMPS:BGC:1,2009-10-01T16:48:00Z,26.4040,-81.8810,0.327,1111122 
COMPS,ioos:station:USF.COMPS:BGC:1,2009-10-01T16:54:00Z,26.4040,-81.8810,0.314,1111122 
COMPS,ioos:station:USF.COMPS:BGC:1,2009-10-01T17:00:00Z,26.4040,-81.8810,0.3,1111122 
COMPS,ioos:station:USF.COMPS:BGC:1,2009-10-01T17:06:00Z,26.4040,-81.8810,0.303,1111122 
COMPS,ioos:station:USF.COMPS:BGC:1,2009-10-01T17:12:00Z,26.4040,-81.8810,0.295,1111122 
COMPS,ioos:station:USF.COMPS:BGC:1,2009-10-01T17:18:00Z,26.4040,-81.8810,0.281,1111122 
COMPS,ioos:station:USF.COMPS:BGC:1,2009-10-01T17:24:00Z,26.4040,-81.8810,0.287,1111122 
COMPS,ioos:station:USF.COMPS:BGC:1,2009-10-01T17:30:00Z,26.4040,-81.8810,0.264,1111122 
COMPS,ioos:station:USF.COMPS:BGC:1,2009-10-01T17:36:00Z,26.4040,-81.8810,0.258,1111122 
COMPS,ioos:station:USF.COMPS:BGC:1,2009-10-01T17:42:00Z,26.4040,-81.8810,0.251,1111122 
COMPS,ioos:station:USF.COMPS:BGC:1,2009-10-01T17:48:00Z,26.4040,-81.8810,0.241,1111122 
COMPS,ioos:station:USF.COMPS:BGC:1,2009-10-01T17:54:00Z,26.4040,-81.8810,0.223,1111122 
COMPS,ioos:station:USF.COMPS:BGC:1,2009-10-01T18:00:00Z,26.4040,-81.8810,0.215,1111122 
COMPS,ioos:station:USF.COMPS:BGC:1,2009-10-01T18:06:00Z,26.4040,-81.8810,0.189,1111122 
COMPS,ioos:station:USF.COMPS:BGC:1,2009-10-01T18:12:00Z,26.4040,-81.8810,0.181,1111122 
COMPS,ioos:station:USF.COMPS:BGC:1,2009-10-01T18:18:00Z,26.4040,-81.8810,0.166,1111122 
COMPS,ioos:station:USF.COMPS:BGC:1,2009-10-01T18:24:00Z,26.4040,-81.8810,0.151,1111122 
COMPS,ioos:station:USF.COMPS:BGC:1,2009-10-01T18:30:00Z,26.4040,-81.8810,0.142,1111122 
COMPS,ioos:station:USF.COMPS:BGC:1,2009-10-01T18:36:00Z,26.4040,-81.8810,0.147,1111122 
COMPS,ioos:station:USF.COMPS:BGC:1,2009-10-01T18:42:00Z,26.4040,-81.8810,0.135,1111122 
COMPS,ioos:station:USF.COMPS:BGC:1,2009-10-01T18:48:00Z,26.4040,-81.8810,0.109,1111122 
COMPS,ioos:station:USF.COMPS:BGC:1,2009-10-01T18:54:00Z,26.4040,-81.8810,0.102,1111122 
COMPS,ioos:station:USF.COMPS:BGC:1,2009-10-01T19:00:00Z,26.4040,-81.8810,0.108,1111122 
COMPS,ioos:station:USF.COMPS:BGC:1,2009-10-01T19:06:00Z,26.4040,-81.8810,0.09,1111122 
COMPS,ioos:station:USF.COMPS:BGC:1,2009-10-01T19:12:00Z,26.4040,-81.8810,0.074,1111122 
COMPS,ioos:station:USF.COMPS:BGC:1,2009-10-01T19:18:00Z,26.4040,-81.8810,0.059,1111122 
COMPS,ioos:station:USF.COMPS:BGC:1,2009-10-01T19:24:00Z,26.4040,-81.8810,0.051,1111122 
COMPS,ioos:station:USF.COMPS:BGC:1,2009-10-01T19:30:00Z,26.4040,-81.8810,0.045,1111122 
COMPS,ioos:station:USF.COMPS:BGC:1,2009-10-01T19:36:00Z,26.4040,-81.8810,0.028,1111122 
COMPS,ioos:station:USF.COMPS:BGC:1,2009-10-01T19:42:00Z,26.4040,-81.8810,0.031,1111122 
COMPS,ioos:station:USF.COMPS:BGC:1,2009-10-01T19:48:00Z,26.4040,-81.8810,0.022,1111122 
COMPS,ioos:station:USF.COMPS:BGC:1,2009-10-01T19:54:00Z,26.4040,-81.8810,0.01,1111122 
COMPS,ioos:station:USF.COMPS:BGC:1,2009-10-01T20:00:00Z,26.4040,-81.8810,-0.005,1111122 
COMPS,ioos:station:USF.COMPS:BGC:1,2009-10-01T20:06:00Z,26.4040,-81.8810,-0.019,1111122 
COMPS,ioos:station:USF.COMPS:BGC:1,2009-10-01T20:12:00Z,26.4040,-81.8810,-0.018,1111122 
COMPS,ioos:station:USF.COMPS:BGC:1,2009-10-01T20:18:00Z,26.4040,-81.8810,-0.027,1111122 
COMPS,ioos:station:USF.COMPS:BGC:1,2009-10-01T20:24:00Z,26.4040,-81.8810,-0.045,1111122 
COMPS,ioos:station:USF.COMPS:BGC:1,2009-10-01T20:30:00Z,26.4040,-81.8810,-0.056,1111122 
COMPS,ioos:station:USF.COMPS:BGC:1,2009-10-01T20:36:00Z,26.4040,-81.8810,-0.061,1111122 
COMPS,ioos:station:USF.COMPS:BGC:1,2009-10-01T20:42:00Z,26.4040,-81.8810,-0.079,1111122 
COMPS,ioos:station:USF.COMPS:BGC:1,2009-10-01T20:48:00Z,26.4040,-81.8810,-0.09,1111122 
COMPS,ioos:station:USF.COMPS:BGC:1,2009-10-01T20:54:00Z,26.4040,-81.8810,-0.095,1111122 
COMPS,ioos:station:USF.COMPS:BGC:1,2009-10-01T21:00:00Z,26.4040,-81.8810,-0.103,1111122 
COMPS,ioos:station:USF.COMPS:BGC:1,2009-10-01T21:06:00Z,26.4040,-81.8810,-0.124,1111122 
COMPS,ioos:station:USF.COMPS:BGC:1,2009-10-01T21:12:00Z,26.4040,-81.8810,-0.132,1111122 
COMPS,ioos:station:USF.COMPS:BGC:1,2009-10-01T21:18:00Z,26.4040,-81.8810,-0.147,1111122 
COMPS,ioos:station:USF.COMPS:BGC:1,2009-10-01T21:24:00Z,26.4040,-81.8810,-0.154,1111122 
COMPS,ioos:station:USF.COMPS:BGC:1,2009-10-01T21:30:00Z,26.4040,-81.8810,-0.16,1111122 
COMPS,ioos:station:USF.COMPS:BGC:1,2009-10-01T21:36:00Z,26.4040,-81.8810,-0.173,1111122 
COMPS,ioos:station:USF.COMPS:BGC:1,2009-10-01T21:42:00Z,26.4040,-81.8810,-0.183,1111122 
COMPS,ioos:station:USF.COMPS:BGC:1,2009-10-01T21:48:00Z,26.4040,-81.8810,-0.187,1111122 
COMPS,ioos:station:USF.COMPS:BGC:1,2009-10-01T21:54:00Z,26.4040,-81.8810,-0.189,1111122 
COMPS,ioos:station:USF.COMPS:BGC:1,2009-10-01T22:00:00Z,26.4040,-81.8810,-0.205,1111122 
COMPS,ioos:station:USF.COMPS:BGC:1,2009-10-01T22:06:00Z,26.4040,-81.8810,-0.208,1111122 
COMPS,ioos:station:USF.COMPS:BGC:1,2009-10-01T22:12:00Z,26.4040,-81.8810,-0.2,1111122 
COMPS,ioos:station:USF.COMPS:BGC:1,2009-10-01T22:18:00Z,26.4040,-81.8810,-0.203,1111122 
COMPS,ioos:station:USF.COMPS:BGC:1,2009-10-01T22:24:00Z,26.4040,-81.8810,-0.21,1111122 
COMPS,ioos:station:USF.COMPS:BGC:1,2009-10-01T22:30:00Z,26.4040,-81.8810,-0.208,1111122 
COMPS,ioos:station:USF.COMPS:BGC:1,2009-10-01T22:36:00Z,26.4040,-81.8810,-0.207,1111122 
COMPS,ioos:station:USF.COMPS:BGC:1,2009-10-01T22:42:00Z,26.4040,-81.8810,-0.203,1111122 
COMPS,ioos:station:USF.COMPS:BGC:1,2009-10-01T22:48:00Z,26.4040,-81.8810,-0.195,1111122 
COMPS,ioos:station:USF.COMPS:BGC:1,2009-10-01T22:54:00Z,26.4040,-81.8810,-0.199,1111122 
COMPS,ioos:station:USF.COMPS:BGC:1,2009-10-01T23:00:00Z,26.4040,-81.8810,-0.202,1111122 
COMPS,ioos:station:USF.COMPS:BGC:1,2009-10-01T23:06:00Z,26.4040,-81.8810,-0.192,1111122 
COMPS,ioos:station:USF.COMPS:BGC:1,2009-10-01T23:12:00Z,26.4040,-81.8810,-0.188,1111122 
COMPS,ioos:station:USF.COMPS:BGC:1,2009-10-01T23:18:00Z,26.4040,-81.8810,-0.177,1111122 
COMPS,ioos:station:USF.COMPS:BGC:1,2009-10-01T23:24:00Z,26.4040,-81.8810,-0.178,1111122 
COMPS,ioos:station:USF.COMPS:BGC:1,2009-10-01T23:30:00Z,26.4040,-81.8810,-0.163,1111122 
COMPS,ioos:station:USF.COMPS:BGC:1,2009-10-01T23:36:00Z,26.4040,-81.8810,-0.153,1111122 
COMPS,ioos:station:USF.COMPS:BGC:1,2009-10-01T23:42:00Z,26.4040,-81.8810,-0.155,1111122 
COMPS,ioos:station:USF.COMPS:BGC:1,2009-10-01T23:48:00Z,26.4040,-81.8810,-0.15,1111122 
COMPS,ioos:station:USF.COMPS:BGC:1,2009-10-01T23:54:00Z,26.4040,-81.8810,-0.137,1111122 
COMPS,ioos:station:USF.COMPS:BGC:1,2009-10-02T00:00:00Z,26.4040,-81.8810,-0.131,1111122 
COMPS,ioos:station:USF.COMPS:BGC:1,2009-10-02T00:06:00Z,26.4040,-81.8810,-0.118,1111122 
COMPS,ioos:station:USF.COMPS:BGC:1,2009-10-02T00:12:00Z,26.4040,-81.8810,-0.11,1111122 
COMPS,ioos:station:USF.COMPS:BGC:1,2009-10-02T00:18:00Z,26.4040,-81.8810,-0.084,1111122 
COMPS,ioos:station:USF.COMPS:BGC:1,2009-10-02T00:24:00Z,26.4040,-81.8810,-0.076,1111122 
COMPS,ioos:station:USF.COMPS:BGC:1,2009-10-02T00:30:00Z,26.4040,-81.8810,-0.062,1111122 
COMPS,ioos:station:USF.COMPS:BGC:1,2009-10-02T00:36:00Z,26.4040,-81.8810,-0.055,1111122 
COMPS,ioos:station:USF.COMPS:BGC:1,2009-10-02T00:42:00Z,26.4040,-81.8810,-0.038,1111122 
COMPS,ioos:station:USF.COMPS:BGC:1,2009-10-02T00:48:00Z,26.4040,-81.8810,-0.022,1111122 
COMPS,ioos:station:USF.COMPS:BGC:1,2009-10-02T00:54:00Z,26.4040,-81.8810,-0.012,1111122 
COMPS,ioos:station:USF.COMPS:BGC:1,2009-10-02T01:00:00Z,26.4040,-81.8810,0.005,1111122 
COMPS,ioos:station:USF.COMPS:BGC:1,2009-10-02T01:06:00Z,26.4040,-81.8810,0.027,1111122 
COMPS,ioos:station:USF.COMPS:BGC:1,2009-10-02T01:12:00Z,26.4040,-81.8810,0.033,1111122 
COMPS,ioos:station:USF.COMPS:BGC:1,2009-10-02T01:18:00Z,26.4040,-81.8810,0.048,1111122 
COMPS,ioos:station:USF.COMPS:BGC:1,2009-10-02T01:24:00Z,26.4040,-81.8810,0.059,1111122 
COMPS,ioos:station:USF.COMPS:BGC:1,2009-10-02T01:30:00Z,26.4040,-81.8810,0.078,1111122 
COMPS,ioos:station:USF.COMPS:BGC:1,2009-10-02T01:36:00Z,26.4040,-81.8810,0.084,1111122 
COMPS,ioos:station:USF.COMPS:BGC:1,2009-10-02T01:42:00Z,26.4040,-81.8810,0.103,1111122 
COMPS,ioos:station:USF.COMPS:BGC:1,2009-10-02T01:48:00Z,26.4040,-81.8810,0.116,1111122 
COMPS,ioos:station:USF.COMPS:BGC:1,2009-10-02T01:54:00Z,26.4040,-81.8810,0.125,1111122 
COMPS,ioos:station:USF.COMPS:BGC:1,2009-10-02T02:00:00Z,26.4040,-81.8810,0.135,1111122 
COMPS,ioos:station:USF.COMPS:BGC:1,2009-10-02T02:06:00Z,26.4040,-81.8810,0.148,1111122 
COMPS,ioos:station:USF.COMPS:BGC:1,2009-10-02T02:12:00Z,26.4040,-81.8810,0.156,1111122 
COMPS,ioos:station:USF.COMPS:BGC:1,2009-10-02T02:18:00Z,26.4040,-81.8810,0.174,1111122 
COMPS,ioos:station:USF.COMPS:BGC:1,2009-10-02T02:24:00Z,26.4040,-81.8810,0.186,1111122 
COMPS,ioos:station:USF.COMPS:BGC:1,2009-10-02T02:30:00Z,26.4040,-81.8810,0.2,1111122 
COMPS,ioos:station:USF.COMPS:BGC:1,2009-10-02T02:36:00Z,26.4040,-81.8810,0.212,1111122 
COMPS,ioos:station:USF.COMPS:BGC:1,2009-10-02T02:42:00Z,26.4040,-81.8810,0.221,1111122 
COMPS,ioos:station:USF.COMPS:BGC:1,2009-10-02T02:48:00Z,26.4040,-81.8810,0.233,1111122 
COMPS,ioos:station:USF.COMPS:BGC:1,2009-10-02T02:54:00Z,26.4040,-81.8810,0.242,1111122 
COMPS,ioos:station:USF.COMPS:BGC:1,2009-10-02T03:00:00Z,26.4040,-81.8810,0.256,1111122 